EHI
0 0 0 0 0 0 0 0 0 0 0 0 0 0 1 3 8 16 25 33 36 27 14 7 4 1 0 0 0 0 0 0 0 0 0 0 0 0 0 0 0 0 0 0
0 0 0 0 0 0 0 0 0 0 0 0 0 0 0 1 5 11 18 25 26 19 11 6 2 0 0 0 0 0 0 0 0 0 0 0 0 0 0 0 0 0 0 0
0 0 0 0 0 0 0 0 0 0 0 0 0 0 0 0 2 5 10 15 14 10 7 4 1 0 0 0 0 0 0 0 0 0 0 0 0 0 0 0 0 0 0 0
0 0 0 0 0 0 0 0 0 0 0 0 0 0 0 0 1 3 6 10 11 9 7 5 1 0 0 0 0 0 0 0 0 0 0 0 0 0 0 0 0 0 0 0
0 0 0 0 0 0 0 0 0 0 0 0 0 0 0 0 1 4 10 18 21 17 11 5 2 0 0 0 0 0 0 0 0 0 0 0 0 0 0 0 0 0 0 0
0 0 0 0 0 0 0 0 0 0 0 0 0 0 0 0 2 11 23 34 36 26 13 5 1 0 0 0 0 0 0 0 0 0 0 0 0 0 0 0 0 0 0 0
0 0 0 0 0 0 0 0 0 0 0 0 0 0 0 0 3 13 31 45 44 29 13 4 0 0 0 0 0 0 0 0 0 0 0 0 0 0 0 0 0 0 0 0
0 0 0 0 0 0 0 0 0 0 0 0 0 0 0 0 2 11 29 44 40 26 11 3 0 0 0 0 0 0 0 0 0 0 0 0 0 0 0 0 0 0 0 0
0 0 0 0 0 0 0 0 0 0 0 0 0 0 0 0 1 8 24 36 32 19 9 2 0 0 0 0 0 0 0 0 0 0 0 0 0 0 0 0 0 0 0 0
0 0 0 0 0 0 0 0 0 0 0 0 0 0 0 0 1 7 20 29 24 12 4 1 0 0 0 0 0 0 0 0 0 0 0 0 0 0 0 0 0 0 0 0
0 0 0 0 0 0 0 0 0 0 0 0 0 0 0 0 1 5 13 19 15 7 1 0 0 0 0 0 0 0 0 0 0 0 0 0 0 0 0 0 0 0 0 0
0 0 0 0 0 0 0 0 0 0 0 0 0 0 0 0 0 2 5 7 6 2 0 0 0 0 0 0 0 0 0 0 0 0 0 0 0 0 0 0 0 0 0 0
0 0 0 0 0 0 0 0 0 0 0 0 0 0 0 0 0 0 1 1 1 0 0 0 0 0 0 0 0 0 0 0 0 0 0 0 0 0 0 0 0 0 0 0
0 0 0 0 0 0 0 0 0 0 0 0 0 0 0 0 0 0 0 0 0 0 0 0 0 0 0 0 0 0 0 0 0 0 0 0 0 0 0 0 0 0 0 0
0 0 0 0 0 0 0 0 0 0 0 0 0 0 0 0 0 0 0 0 0 0 0 0 0 0 0 0 0 0 0 0 0 0 0 0 0 0 0 0 0 0 0 0
0 0 0 0 0 0 0 0 0 0 0 0 0 0 0 0 0 0 0 0 0 0 0 0 0 0 0 0 0 0 0 0 0 0 0 0 0 0 0 0 0 0 0 0
0 0 0 0 0 0 0 0 0 0 0 0 0 0 0 0 0 0 0 0 0 0 0 0 0 0 0 0 0 0 0 0 0 0 0 0 0 0 0 0 0 0 0 0
0 0 0 0 0 0 0 0 0 0 0 0 0 0 0 0 0 0 0 0 0 0 0 0 0 0 0 0 0 0 0 0 0 0 0 0 0 0 0 0 0 0 0 0
0 0 0 0 0 0 0 0 0 0 0 0 0 0 0 0 0 0 0 0 0 0 0 0 0 0 0 0 0 0 0 0 0 0 0 0 0 0 0 0 0 0 0 0
0 0 0 0 0 0 0 0 0 0 0 0 0 0 0 0 0 0 0 0 0 0 0 0 0 0 0 0 0 0 0 0 0 0 0 0 0 0 0 0 0 0 0 0
0 0 0 0 0 0 0 0 0 0 0 0 0 0 0 0 0 0 0 0 0 0 0 0 0 0 0 0 0 0 0 0 0 0 0 0 0 0 0 0 0 0 0 0
0 0 0 0 0 0 0 0 0 0 0 0 0 0 0 0 0 0 0 0 0 0 0 0 0 0 0 0 0 0 0 0 0 0 0 0 0 0 0 0 0 0 0 0
0 0 0 0 0 0 0 0 0 0 0 0 0 0 0 0 0 0 0 0 0 0 0 0 0 0 0 0 0 0 0 0 0 0 0 0 0 0 0 0 0 0 0 0
0 0 0 0 0 0 0 0 0 0 0 0 0 0 0 0 0 0 0 0 0 0 0 0 0 0 0 0 0 0 0 0 0 0 0 0 0 0 0 0 0 0 0 0
0 0 0 0 0 0 0 0 0 0 0 0 0 0 0 0 0 0 0 0 0 0 0 0 0 0 0 0 0 0 0 0 0 0 0 0 0 0 0 0 0 0 0 0
0 0 0 0 0 0 0 0 0 0 0 0 0 0 0 0 0 0 0 0 0 0 0 0 0 0 0 0 0 0 0 0 0 0 0 0 0 0 0 0 0 0 0 0
Wind_Speed
3 4 5 7 7 6 3 2 5 6 4 2 2 3 3 2 3 4 5 7 10 9 8 8 8 7 7 7 7 6 7 5 4 4 4 5 5 4 5 6 7 7 7 7
4 4 9 6 4 4 3 3 5 7 2 1 0 1 1 2 3 4 6 6 7 7 8 8 7 7 7 7 8 7 7 6 5 4 4 4 5 5 4 5 7 7 7 6
8 7 4 5 4 4 4 5 6 7 4 1 2 2 1 1 3 4 5 6 7 9 9 8 8 8 8 8 8 8 8 8 8 7 6 6 4 4 4 5 4 6 6 6
7 7 4 4 5 7 6 8 8 6 2 4 3 4 4 2 4 6 7 8 9 10 9 8 9 9 9 8 8 10 10 9 8 7 7 7 5 4 3 2 3 4 5 5
9 7 8 8 10 10 10 6 5 5 4 3 2 4 6 3 7 11 11 11 10 10 11 10 10 10 10 9 9 9 10 10 8 8 8 8 7 4 2 2 4 4 4 5
8 5 8 11 8 8 6 3 5 4 4 2 7 7 7 9 13 13 14 14 12 12 12 12 11 11 10 8 8 8 10 9 7 8 8 8 7 5 4 3 3 3 2 3
5 5 4 5 3 2 4 5 4 4 3 8 5 5 11 12 11 14 17 15 13 13 13 13 12 11 9 8 8 7 9 8 6 7 6 6 6 5 4 2 2 2 2 2
7 9 8 8 10 9 7 10 8 6 6 7 3 7 9 6 6 8 12 14 15 14 13 12 11 10 9 8 7 6 7 6 5 6 5 5 4 3 2 1 1 1 1 2
9 9 4 6 7 10 7 7 8 7 3 4 7 7 7 2 3 11 15 15 15 14 14 12 10 9 8 8 6 6 6 5 4 4 4 3 3 2 2 1 1 1 2 2
8 6 5 3 3 3 7 9 6 7 6 6 6 5 7 6 9 13 17 18 16 15 14 12 10 8 7 6 6 5 5 4 3 2 1 2 1 1 1 1 2 2 3 3
4 4 5 1 6 7 4 5 5 5 5 6 6 9 8 11 14 18 18 16 16 16 15 13 10 8 8 6 5 4 3 2 1 1 0 1 1 1 1 1 2 3 3 4
2 4 2 6 4 1 4 7 8 6 6 6 5 10 5 8 11 13 14 15 16 17 15 14 12 9 8 7 5 4 3 2 2 1 1 1 1 1 2 2 3 3 4 4
1 5 3 8 6 5 2 1 3 4 3 4 4 10 5 1 8 12 15 17 18 18 16 14 12 10 9 7 6 4 3 2 2 2 1 2 2 2 3 4 4 4 5 5
4 3 5 7 6 3 4 2 1 3 2 4 7 7 5 2 8 12 16 18 18 18 18 15 12 9 8 7 6 5 3 3 3 2 2 3 3 4 4 5 5 5 5 6
5 1 2 4 5 4 4 6 4 5 7 8 8 7 8 9 11 13 16 18 19 19 18 17 14 10 9 7 5 4 3 3 3 3 3 4 4 4 5 5 6 6 6 6
3 0 1 4 5 5 7 7 7 8 7 8 7 10 6 4 8 12 17 20 21 20 19 17 14 12 10 8 6 5 4 3 3 3 4 4 4 5 6 6 6 6 6 6
1 2 1 4 4 5 8 8 9 8 7 7 10 9 4 6 13 18 19 20 20 19 17 16 14 11 9 7 6 5 3 3 3 4 4 5 5 6 7 7 6 6 5 4
3 3 2 2 1 8 9 4 4 5 6 5 5 4 6 6 6 6 9 12 14 15 15 13 11 9 6 4 4 3 3 2 3 4 5 5 5 6 6 5 5 4 3 3
5 6 4 3 3 8 8 5 3 3 7 4 4 3 7 11 10 6 7 10 10 11 11 9 8 7 6 5 3 3 1 1 2 3 5 5 5 5 5 4 4 4 4 5
4 3 3 3 3 6 5 7 7 2 7 5 1 6 10 10 7 5 9 14 14 13 10 9 7 6 5 3 3 2 0 2 3 4 5 5 4 4 5 6 5 5 5 5
4 4 1 2 4 8 4 8 7 2 6 9 3 4 7 3 6 12 15 15 15 13 11 8 6 5 4 3 2 1 1 3 4 4 4 6 6 7 7 6 5 5 5 6
1 1 1 0 3 8 4 7 3 4 5 4 2 6 12 15 17 16 16 16 15 12 9 7 5 4 2 2 2 2 3 3 4 5 7 7 7 6 6 6 5 5 5 6
3 5 3 5 8 6 4 7 10 7 4 1 5 12 18 18 17 16 15 14 12 10 7 5 5 4 1 1 2 3 3 3 5 7 7 7 7 6 5 5 5 5 5 6
4 2 2 6 8 6 8 7 5 2 5 7 12 14 16 18 16 15 13 10 8 6 6 5 5 4 2 3 4 3 3 5 7 8 6 5 6 6 5 4 4 4 5 6
4 2 4 7 6 5 5 5 4 9 13 15 13 13 14 16 15 13 11 9 7 5 4 4 5 4 4 4 5 5 5 7 8 7 6 5 5 5 5 4 3 4 4 6
2 3 3 3 4 3 6 9 12 14 14 14 14 12 11 12 12 11 9 7 6 5 5 5 5 5 5 6 6 5 5 6 7 6 5 4 4 4 4 5 5 7 7 11
Wind_Direction
120 107 190 204 191 188 188 219 266 268 284 2 342 342 353 55 106 160 184 181 172 152 120 107 98 97 90 80 82 81 88 87 94 93 91 85 74 62 57 56 52 53 56 58
57 245 224 197 169 159 181 243 275 291 299 158 122 21 41 83 137 166 176 181 167 143 131 117 101 89 88 88 83 78 74 68 60 70 80 87 92 76 66 53 48 46 50 48
189 231 196 166 186 189 210 212 239 260 321 352 139 326 333 60 114 134 149 159 161 162 152 133 112 99 95 88 86 85 75 70 64 71 83 84 72 62 44 36 34 30 42 49
217 237 185 181 207 182 245 227 218 243 261 268 173 254 261 188 171 179 171 166 166 162 148 133 121 109 101 96 91 86 82 77 72 75 85 87 88 83 59 41 35 27 32 39
223 205 185 206 221 183 218 230 213 230 217 255 244 199 267 185 210 208 190 178 168 156 146 137 127 117 108 102 96 92 88 81 77 80 88 92 90 92 84 57 46 32 20 24
228 211 187 205 223 194 207 73 50 52 86 246 232 186 238 209 210 199 189 181 166 151 142 132 125 120 111 103 96 94 91 82 78 82 84 96 103 104 92 64 45 22 2 2
267 265 227 186 192 168 140 106 13 342 360 246 237 186 236 228 217 196 184 174 162 150 143 139 136 129 119 109 99 93 95 90 86 89 88 94 101 102 99 91 62 33 3 342
211 259 228 196 197 201 184 154 170 211 234 268 273 223 248 263 236 186 168 165 159 152 145 141 138 132 124 115 106 105 104 103 95 92 89 90 97 101 99 86 66 13 308 287
189 240 260 214 200 174 165 190 185 170 225 257 271 277 296 316 182 168 164 166 165 154 145 140 136 129 126 122 119 121 118 109 99 98 98 92 91 90 77 42 7 330 314 305
171 234 278 250 139 182 167 156 118 142 178 243 265 254 246 222 192 176 175 175 166 151 144 140 138 133 127 123 119 113 113 117 117 120 121 106 75 54 36 12 345 326 315 312
148 189 298 333 179 189 139 140 147 149 173 187 245 259 228 211 192 186 184 173 160 152 149 146 142 135 127 120 118 117 119 116 130 145 97 68 343 336 342 329 308 301 294 295
60 126 266 273 267 279 187 181 154 167 222 199 203 256 262 226 196 182 172 162 155 152 150 148 144 139 137 135 135 140 153 170 197 220 236 281 298 309 313 304 296 291 286 286
38 97 27 341 340 3 43 97 147 134 135 180 203 263 316 256 170 166 162 159 156 154 151 148 148 150 150 149 147 157 191 216 229 234 252 289 294 290 287 287 289 287 282 284
95 111 167 209 234 287 304 292 172 134 173 232 229 252 287 207 172 167 163 160 157 158 155 155 153 152 151 153 158 173 202 228 238 240 249 267 271 271 274 279 281 279 277 278
64 93 256 254 271 275 258 265 255 218 207 213 237 232 242 216 189 172 162 158 159 162 161 160 156 153 152 156 166 185 211 231 236 240 250 257 263 269 273 276 276 278 279 280
49 132 320 290 276 283 274 262 252 244 230 229 243 252 241 180 150 159 166 167 167 167 163 159 155 154 158 167 177 188 210 228 231 239 252 261 269 273 272 273 277 285 290 293
256 178 194 264 284 321 271 240 230 232 222 208 229 243 164 171 179 178 175 172 168 163 158 156 154 157 163 170 174 186 210 230 235 251 266 272 272 275 276 283 292 294 299 306
192 168 180 244 262 235 247 267 259 257 262 248 256 259 185 177 156 146 155 156 152 150 149 147 146 145 147 149 163 187 211 226 247 266 278 283 286 287 293 304 311 322 342 2
179 165 170 176 235 275 296 318 334 299 283 264 237 154 124 110 83 70 109 122 126 126 128 127 125 128 137 151 170 175 189 261 284 295 302 308 310 308 325 356 16 26 38 32
59 103 141 157 207 248 273 328 326 312 291 318 248 160 150 135 144 152 119 113 110 109 109 110 111 117 139 158 160 146 7 328 322 320 322 334 353 27 52 58 55 45 44 31
9 23 67 200 237 265 294 314 329 238 275 324 318 168 154 118 123 121 115 109 109 108 109 114 126 138 149 156 147 105 8 340 329 347 26 45 60 75 76 69 57 46 35 21
286 325 300 221 245 261 325 355 340 273 294 316 35 103 106 106 109 112 111 112 113 115 121 131 137 133 138 159 128 63 7 351 28 59 65 63 62 71 73 66 51 35 21 9
228 205 214 219 237 262 291 268 266 255 235 174 120 123 122 118 117 115 114 116 121 129 134 135 132 123 109 105 102 59 11 40 76 79 72 67 67 59 54 50 35 17 6 359
282 207 230 273 275 295 305 298 293 191 142 123 125 124 122 118 118 117 118 120 121 121 122 120 117 106 74 54 65 66 62 84 92 87 75 66 60 46 33 26 17 6 356 351
261 253 247 261 286 311 352 3 75 99 104 106 105 109 116 118 120 121 119 117 112 107 103 109 111 100 77 66 63 69 88 99 93 85 75 62 50 38 21 10 355 350 328 333
249 239 261 297 339 12 39 59 84 93 97 103 108 105 105 113 116 114 107 105 105 103 103 100 95 89 79 78 74 71 83 95 95 83 68 55 44 31 20 10 2 352 347 337